Regional Weather Roundup
Issued by NWS

Home | Current Version | Previous Version | Text Only | Print | Product List | Glossary On
Versions: 1 2 3 4 5 6 7 8 9 10 11 12 13 14 15 16 17 18 19 20 21 22 23 24 25 26 27 28 29 30 31 32 33 34 35 36 37 38 39 40 41 42 43 44 45 46 47 48 49 50
000
ASUS44 KOUN 221710
RWROK

WEATHER ROUNDUP FOR OKLAHOMA
NATIONAL WEATHER SERVICE NORMAN OK
1200 PM CDT TUE JUL 22 2014

NOTE: "FAIR" INDICATES FEW OR NO CLOUDS BELOW 12,000 FEET WITH NO
      SIGNIFICANT WEATHER AND/OR OBSTRUCTIONS TO VISIBILITY.

OKZ001>007-009>012-014-015-017-221800-
NORTHWEST OKLAHOMA AND THE PANHANDLE

CITY           SKY/WX    TMP DP  RH WIND       PRES   REMARKS
GAGE           MOSUNNY   93  71  48 S12       30.12S HX 100
ENID/WOODRING  MOSUNNY   90  75  62 S9        30.07F HX 100
$$

OKZ016-021>023-033>039-044-045-221800-
SOUTHWEST OKLAHOMA

CITY           SKY/WX    TMP DP  RH WIND       PRES   REMARKS
LAWTON/REGL    SUNNY     91  72  53 S8        30.08F HX  98
LAWTON/FT SILL SUNNY     91  73  55 S8        30.08F HX  98
FREDERICK      SUNNY     92  74  55 S6        30.07S HX 101
CLINTON        SUNNY     90  69  50 S8        30.14S HX  94
HOBART         SUNNY     90  72  55 S10       30.11S HX  97
ALTUS AFB      SUNNY     89  75  63 SE9       30.10S HX  98
$$

OKZ018>020-024>031-221800-
CENTRAL OKLAHOMA

CITY           SKY/WX    TMP DP  RH WIND       PRES   REMARKS
OKLAHOMA CITY  PTSUNNY   88  75  65 SW7       30.11S HX  97
OKC/WILEY POST SUNNY     88  75  65 S8        30.10F HX  97
OKC/TINKER AFB SUNNY     87  74  66 S9        30.11F HX  95
STILLWATER     SUNNY     90  75  61 S7        30.08F HX 100
GUTHRIE        SUNNY     89  75  63 SW8       30.09  HX  99
$$

OKZ008-013-054>072-221800-
NORTHEAST OKLAHOMA

CITY           SKY/WX    TMP DP  RH WIND       PRES   REMARKS
TULSA          MOSUNNY   88  74  63 S6        30.08F HX  96
TULSA/JONES    SUNNY     87  75  67 VRB5      30.09S HX  96
PONCA CITY     SUNNY     90  75  61 SW7       30.08S HX 100
BARTLESVILLE   SUNNY     90  75  61 VRB6      30.09S HX 100
MUSKOGEE       SUNNY     85  73  67 S6        30.11F HX  91
$$

OKZ032-040>043-046>053-073>077-221800-
SOUTH CENTRAL/SOUTHEAST OKLAHOMA

CITY           SKY/WX    TMP DP  RH WIND       PRES   REMARKS
ARDMORE/DWNTWN SUNNY     86  73  66 S3        30.08F HX  93
MCALESTER      SUNNY     84  72  67 SW5       30.11F
$$



USA.gov is the U.S. government's official web portal to all federal, state and local government web resources and services.